Weather History for Cape Cod CGAS, MA

Change the Weather History Date:

Saturday, December 8, 2012

  Actual Average Record
Temperature  
Mean Temperature 50 °F -  
Max Temperature 55 °F 43 °F 60 °F (2004)
Min Temperature 44 °F 28 °F 6 °F (2008)
Degree Days  
Heating Degree Days 16    
Moisture  
Dew Point 48 °F    
Average Humidity 98    
Maximum Humidity 100    
Minimum Humidity 93    
Precipitation  
Precipitation 0.20 in - - ()
Sea Level Pressure  
Sea Level Pressure 29.94 in    
Wind  
Wind Speed 5 mph (South)    
Max Wind Speed 18 mph    
Max Gust Speed 22 mph    
Visibility 4 miles    
Events Fog , Rain    
Averages and records for this station are not official NWS values.
T = Trace of Precipitation, MM = Missing Value Source: NWS Daily Summary

Daily Weather History Graph

Daily Weather History Graph

Search for Another Location

Airport:

Trip Planner

Search our weather history database for the weather conditions in past years. The results will help you decide how hot, cold, wet, or windy it might be!

Date:

Astronomy

Dec. 08, 2012 Rise Set
Actual Time 6:56 AM EST 4:11 PM EST
Civil Twilight 6:25 AM EST 4:42 PM EST
Nautical Twilight 5:50 AM EST 5:17 PM EST
Astronomical Twilight 5:16 AM EST 5:51 PM EST
Moon 1:14 AM EST (12/8) 12:43 PM EST (12/8)
Length of Visible Light 10h 17m
Length of Day
9h 14m
Waning Crescent, 28% of the Moon is Illuminated
Dec 8
Waning Crescent
Dec 13
New
Dec 20
First Quarter
Dec 28
Full
Jan 4
Last Quarter

Hourly Weather History & Observations

Time (EST) Temp. Windchill Dew Point Humidity Pressure Visibility Wind Dir Wind Speed Gust Speed Precip Events Conditions
12:15 AM 44.6 °F 43.1 °F 44.6 °F 100% 30.06 in 3.0 mi SSW 3.5 mph - N/A   Overcast
12:35 AM 44.6 °F - 44.6 °F 100% 30.05 in 2.0 mi Calm Calm - N/A Rain Light Rain
12:55 AM 44.6 °F - 44.6 °F 100% 30.05 in 2.5 mi Calm Calm - N/A   Overcast
1:15 AM 44.6 °F 43.1 °F 44.6 °F 100% 30.05 in 4.0 mi South 3.5 mph - N/A   Overcast
1:35 AM 44.6 °F - 44.6 °F 100% 30.05 in 3.0 mi Calm Calm - N/A   Overcast
1:55 AM 44.6 °F - 44.6 °F 100% 30.05 in 2.5 mi Calm Calm - N/A   Overcast
2:15 AM 44.6 °F 43.1 °F 44.6 °F 100% 30.04 in 2.0 mi SSE 3.5 mph - N/A   Overcast
2:35 AM 44.6 °F 43.1 °F 44.6 °F 100% 30.04 in 1.5 mi SE 3.5 mph - N/A   Overcast
2:55 AM 44.6 °F 43.1 °F 44.6 °F 100% 30.03 in 1.0 mi SE 3.5 mph - N/A Rain Light Rain
3:15 AM 44.6 °F 43.1 °F 44.6 °F 100% 30.03 in 1.0 mi SE 3.5 mph - N/A Rain Light Rain
3:35 AM 44.6 °F 43.1 °F 44.6 °F 100% 30.02 in 1.2 mi SE 3.5 mph - N/A Rain Light Rain
3:55 AM 46.4 °F - 44.6 °F 93% 30.02 in 2.5 mi Calm Calm - 0.01 in Rain Light Rain
4:15 AM 46.4 °F - 44.6 °F 93% 30.02 in 2.5 mi Calm Calm - N/A Rain Light Rain
4:35 AM 46.4 °F - 44.6 °F 93% 30.01 in 2.0 mi Calm Calm - 0.01 in Rain Light Rain
4:55 AM 46.4 °F - 44.6 °F 93% 30.01 in 2.0 mi Calm Calm - 0.02 in Rain Light Rain
5:15 AM 46.4 °F - 44.6 °F 93% 30.01 in 1.5 mi Calm Calm - N/A Rain Light Rain
5:35 AM 46.4 °F 45.2 °F 44.6 °F 93% 30.01 in 1.8 mi East 3.5 mph - N/A Rain Light Rain
5:55 AM 46.4 °F 44.3 °F 44.6 °F 93% 30.00 in 2.5 mi ESE 4.6 mph - 0.03 in Rain Light Rain
6:15 AM 46.4 °F 42.9 °F 46.4 °F 100% 30.00 in 4.0 mi ESE 6.9 mph - 0.01 in Rain Light Rain
6:35 AM 46.4 °F 42.9 °F 46.4 °F 100% 30.00 in 3.0 mi SE 6.9 mph - 0.02 in Rain Light Rain
6:55 AM 46.4 °F 41.9 °F 46.4 °F 100% 29.99 in 3.0 mi SE 9.2 mph - 0.06 in Rain Light Rain
7:15 AM 46.4 °F 41.1 °F 46.4 °F 100% 29.97 in 4.0 mi SE 11.5 mph - 0.01 in Rain Light Rain
7:35 AM 48.2 °F - 48.2 °F 100% 29.95 in 3.0 mi SE 13.8 mph - 0.02 in Rain Light Rain
7:55 AM 48.2 °F - 48.2 °F 100% 29.94 in 6.0 mi SE 15.0 mph 21.9 mph 0.02 in   Clear
8:15 AM 50.0 °F - 48.2 °F 94% 29.93 in 7.0 mi SE 16.1 mph 21.9 mph N/A   Clear
8:35 AM 50.0 °F - 48.2 °F 94% 29.94 in 5.0 mi SE 13.8 mph - N/A   Clear
8:55 AM 50.0 °F - 50.0 °F 100% 29.93 in 1.5 mi ESE 9.2 mph - N/A   Clear
9:15 AM 50.0 °F - 50.0 °F 100% 29.92 in 2.0 mi SE 9.2 mph - N/A   Clear
9:35 AM 50.0 °F - 50.0 °F 100% 29.91 in 1.2 mi SE 9.2 mph - N/A   Clear
9:55 AM 50.0 °F - 50.0 °F 100% 29.90 in 0.5 mi SE 12.7 mph 18.4 mph N/A Fog Fog
10:15 AM 51.8 °F - 50.0 °F 94% 29.89 in 0.5 mi SSE 13.8 mph - N/A Fog Fog
10:35 AM 51.8 °F - 51.8 °F 100% 29.88 in 0.2 mi SSE 12.7 mph - N/A Fog Fog
10:55 AM 53.6 °F - 53.6 °F 100% 29.87 in 0.5 mi South 13.8 mph 19.6 mph N/A Fog Fog
11:15 AM 55.4 °F - 55.4 °F 100% 29.86 in 6.0 mi SSW 9.2 mph - N/A   Mist
11:35 AM 55.4 °F - 55.4 °F 100% 29.86 in 10.0 mi SSW 9.2 mph - N/A   Unknown
11:55 AM 55.4 °F - 55.4 °F 100% 29.86 in 5.0 mi West 8.1 mph - N/A   Mist
12:15 PM 53.6 °F - 53.6 °F 100% 29.85 in 1.0 mi West 8.1 mph - N/A Rain Light Rain
12:35 PM 55.4 °F - 55.4 °F 100% 29.84 in 1.8 mi WSW 9.2 mph - N/A   Mist
12:55 PM 55.4 °F - 53.6 °F 94% 29.83 in 9.0 mi West 8.1 mph - N/A   Unknown
1:15 PM 53.6 °F - 53.6 °F 100% 29.83 in 3.0 mi West 6.9 mph - N/A   Mist
1:35 PM 53.6 °F - 53.6 °F 100% 29.84 in 1.8 mi WNW 5.8 mph - N/A   Mist
1:55 PM 53.6 °F - 53.6 °F 100% 29.84 in 3.0 mi West 6.9 mph - N/A   Mist
2:15 PM 53.6 °F - 53.6 °F 100% 29.84 in 3.0 mi NW 5.8 mph - N/A   Clear
2:35 PM 53.6 °F - 53.6 °F 100% 29.85 in 2.0 mi NNW 5.8 mph - N/A   Mist
2:55 PM 50.0 °F - 50.0 °F 100% 29.85 in 1.8 mi North 5.8 mph - N/A   Clear
3:15 PM 48.2 °F - 48.2 °F 100% 29.86 in 3.0 mi NNE 5.8 mph - N/A   Clear
3:35 PM 48.2 °F - 48.2 °F 100% 29.87 in 3.0 mi NNE 3.5 mph - N/A   Clear
3:55 PM 48.2 °F - 46.4 °F 93% 29.87 in 5.0 mi NNE 5.8 mph - N/A   Clear
4:15 PM 46.4 °F 45.2 °F 46.4 °F 100% 29.88 in 7.0 mi NNE 3.5 mph - N/A   Clear
4:35 PM 46.4 °F 44.3 °F 46.4 °F 100% 29.88 in 2.5 mi NE 4.6 mph - N/A   Clear
4:55 PM 46.4 °F 44.3 °F 44.6 °F 93% 29.89 in 2.5 mi NNE 4.6 mph - N/A   Clear
5:15 PM 46.4 °F 45.2 °F 44.6 °F 93% 29.89 in 2.0 mi NNE 3.5 mph - N/A   Clear
5:35 PM 46.4 °F 45.2 °F 44.6 °F 93% 29.90 in 2.0 mi North 3.5 mph - N/A   Clear
5:55 PM 46.4 °F - 44.6 °F 93% 29.91 in 1.5 mi Calm Calm - N/A   Clear
6:15 PM 46.4 °F - 44.6 °F 93% 29.91 in 2.0 mi Calm Calm - N/A   Clear
6:35 PM 46.4 °F - 44.6 °F 93% 29.91 in 3.0 mi Calm Calm - N/A   Clear
6:55 PM 44.6 °F - 44.6 °F 100% 29.92 in 2.0 mi Calm Calm - N/A   Clear
7:15 PM 44.6 °F - 44.6 °F 100% 29.92 in 2.0 mi Calm Calm - N/A   Clear
7:35 PM 46.4 °F 45.2 °F 44.6 °F 93% 29.92 in 2.5 mi South 3.5 mph - N/A   Clear
7:55 PM 46.4 °F 44.3 °F 46.4 °F 100% 29.92 in 3.0 mi SW 4.6 mph - N/A   Clear
8:15 PM 46.4 °F 45.2 °F 46.4 °F 100% 29.94 in 3.0 mi WSW 3.5 mph - N/A   Clear
8:35 PM 48.2 °F - 48.2 °F 100% 29.94 in 8.0 mi West 8.1 mph - N/A   Clear
8:55 PM 48.2 °F - 48.2 °F 100% 29.94 in 10.0 mi West 6.9 mph - N/A   Clear
9:15 PM 48.2 °F - 48.2 °F 100% 29.94 in 10.0 mi West 9.2 mph - N/A   Clear
9:35 PM 48.2 °F - 46.4 °F 93% 29.94 in 10.0 mi West 9.2 mph - N/A   Clear
9:55 PM 48.2 °F - 46.4 °F 93% 29.94 in 7.0 mi WSW 4.6 mph - N/A   Clear
10:15 PM 48.2 °F - 46.4 °F 93% 29.95 in 5.0 mi WSW 6.9 mph - N/A   Clear
10:35 PM 46.4 °F 42.4 °F 46.4 °F 100% 29.96 in 7.0 mi West 8.1 mph - N/A   Clear
10:55 PM 46.4 °F 42.9 °F 44.6 °F 93% 29.96 in 5.0 mi WSW 6.9 mph - N/A   Clear
11:15 PM 46.4 °F 43.5 °F 44.6 °F 93% 29.97 in 3.0 mi WSW 5.8 mph - N/A   Clear
11:35 PM 44.6 °F 41.4 °F 44.6 °F 100% 29.97 in 5.0 mi WSW 5.8 mph - N/A   Clear
11:55 PM 44.6 °F 40.7 °F 44.6 °F 100% 29.98 in 5.0 mi WSW 6.9 mph - N/A   Clear